Regional Weather Roundup
Issued by NWS

Home | Current Version | Previous Version | Graphics & Text | Print | Product List | Glossary Off
Versions: 1 2 3 4 5 6 7 8 9 10 11 12 13 14 15 16 17 18 19 20 21 22 23 24 25 26 27 28 29 30 31 32 33 34 35 36 37 38 39 40 41 42 43 44 45 46 47 48 49 50

000
ASUS43 KMKX 012300
RWRWI

WISCONSIN REGIONAL WEATHER ROUNDUP
NATIONAL WEATHER SERVICE MILWAUKEE/SULLIVAN WI
600 PM CDT TUE SEP 01 2015

NOTE: "FAIR" INDICATES FEW OR NO CLOUDS BELOW 12,000 FEET WITH NO
SIGNIFICANT WEATHER AND/OR OBSTRUCTIONS TO VISIBILITY.

WIZ001-002-006>008-014>016-023>028-020000-
NORTHWEST WISCONSIN

CITY           SKY/WX    TMP DP  RH WIND       PRES   REMARKS
SUPERIOR ARPT  MOSUNNY   82  72  70 W3        29.88S HX  87
ASHLAND        MOSUNNY   83  74  74 CALM      29.90S HX  89
HAYWARD        PTSUNNY   82  71  69 S6        29.93R HX  86
SIREN          CLOUDY    82  70  66 CALM      29.91S HX  86
CUMBERLAND     CLOUDY    79  70  73 CALM      29.93S HX  81
RICE LAKE      CLOUDY    81  71  72 CALM      29.93S HX  85
CHETEK         CLOUDY   N/A N/A N/A CALM      29.91S
LADYSMITH      CLOUDY    81  71  70 CALM      29.95R HX  85
EAU CLAIRE     NOT AVBL
MENOMONIE      CLOUDY    85  75  72 CALM      29.90S HX  92
NEW RICHMOND   CLOUDY    81  72  73 CALM      29.91R HX  85
OSCEOLA        CLOUDY    82  72  71 CALM      29.93R HX  87
$$

WIZ003>005-009-010-017-018-020000-
NORTH CENTRAL WISCONSIN

CITY           SKY/WX    TMP DP  RH WIND       PRES   REMARKS
MANITOWISH WTR MOSUNNY   80  69  70 SW6       29.95S HX  82
ARBOR VITAE    PTSUNNY   80  69  68 W5        29.96S HX  83
WOODRUFF       PTSUNNY   80  69  68 W5        29.96S HX  83
RHINELANDER    PTSUNNY   80  69  69 W5        29.97R HX  83
EAGLE RIVER    PTSUNNY   80  64  56 W6        29.95F HX  82
LAND O LAKES   PTSUNNY   81  66  60 SW7       29.96S HX  83
PHILLIPS       CLOUDY    79  71  74 SW5       29.94S HX  82
TOMAHAWK       PTSUNNY   80  70  70 CALM      29.96R HX  83
MEDFORD        PTSUNNY   80  72  75 SW3       29.95S HX  84
MERRILL        PTSUNNY   82  72  70 SW6       29.95R HX  87
$$

WIZ029-030-035-036-043>047-020000-
CENTRAL WISCONSIN

CITY           SKY/WX    TMP DP  RH WIND       PRES   REMARKS
WAUSAU         PTSUNNY   84  71  65 SW7       29.93R HX  89
MOSINEE        NOT AVBL
MARSHFIELD     MOSUNNY   85  69  58 SW7       29.94S HX  89
STEVENS POINT  MOSUNNY   83  69  61 SW6       29.95R HX  87
WAUPACA        PTSUNNY   87  69  55 S6        29.94R HX  91
WAUTOMA        NOT AVBL
WISC RAPIDS    MOSUNNY   86  69  56 SW8       29.95R HX  90
CAMP DOUGLAS   NOT AVBL
$$

WIZ011>013-019>022-031-037>040-048>050-020000-
NORTHEAST WISCONSIN

CITY           SKY/WX    TMP DP  RH WIND       PRES   REMARKS
ANTIGO         MOSUNNY   81  70  68 SW7       29.96S HX  84
SHAWANO        PTSUNNY   86  69  56 CALM      29.93S HX  90
OCONTO         MOSUNNY   85  72  63 SW6       29.92S HX  91
STURGEON BAY   MOSUNNY   81  70  69 S6        29.96S HX  84
GREEN BAY      MOSUNNY   84  71  65 S6        29.93S HX  89
MANITOWOC      NOT AVBL
APPLETON       PTSUNNY   84  66  54 S7        29.93S HX  86
CLINTONVILLE   MOSUNNY   86  70  58 S5        29.93S HX  90
OSHKOSH        SUNNY     84  72  67 S7        29.94S HX  89
$$

WIZ032>034-041-042-053>061-020000-
SOUTHWEST WISCONSIN

CITY           SKY/WX    TMP DP  RH WIND       PRES   REMARKS
LA CROSSE      MOSUNNY   86  73  65 S7        29.91R HX  93
SPARTA         MOSUNNY   87  70  56 S3        29.93S HX  91
VIROQUA          N/A     83  72  70 SW8       29.96S HX  88
BOSCOBEL       MOSUNNY   89  74  60 SW6       29.94R HX  98
PRAIRIE DU CHI MOSUNNY   87  71  58 S6        29.93S HX  92
PLATTEVILLE    MOSUNNY   84  74  72 S12       29.97S HX  92
$$

WIZ056-057-062-063-064-067-068-020000-
SOUTH CENTRAL WISCONSIN

CITY           SKY/WX    TMP DP  RH WIND       PRES   REMARKS
REEDSBURG      SUNNY     86  73  66 SW8       29.94S HX  92
BARABOO/DELLS  SUNNY     86  69  56 SW6       29.95S HX  90
LONE ROCK      NOT AVBL
MINERAL POINT  SUNNY     86  73  66 S9        29.97S HX  93
MADISON        MOSUNNY   86  70  58 SW9       29.95S HX  90
MIDDLETON      SUNNY     87  70  55 SW8       29.96S HX  92
WATERTOWN      SUNNY     85  73  66 SW8       29.96S HX  92
MONROE         SUNNY     86  72  62 S12G18    29.98S HX  92
JANESVILLE     SUNNY     88  70  55 SW12      29.96F HX  92
$$

WIZ051-052-058>065-066-070>072-020000-
SOUTHEAST WISCONSIN

CITY           SKY/WX    TMP DP  RH WIND       PRES   REMARKS
MILWAUKEE      MOSUNNY   87  68  52 SW15      29.96S HX  90
WAUKESHA       SUNNY     82  68  61 SW6       29.98S HX  85
MILWAUKEE/TIMM MOSUNNY   86  64  48 SW9G16    29.97S HX  87
RACINE         SUNNY     87  69  54 SW8       29.99R HX  91
BURLINGTON     SUNNY     84  69  60 SW6       29.98S HX  88
KENOSHA        SUNNY     86  70  58 SW9       29.98S HX  90
FOND DU LAC    SUNNY     85  72  65 SW6       29.95S HX  91
SHEBOYGAN      SUNNY     83  73  72 SE3       29.95S HX  89
WEST BEND      MOSUNNY   84  68  58 SW8       29.97R HX  87
JUNEAU         SUNNY     84  73  69 S7        29.97S HX  90
$$

LSZ147-162-020000-
LAKE SUPERIOR

STATION/POSITION TIME  TEMP    WIND        PRES    WAVE
                       AIR SEA DIR/SP/G            HT/PER
                 (UTC) (F)     (DEG/KT/KT) (MB)    (FT/S)
W MID LAKE BUOY  2150   61 56  230/  6/  6 1011.8F   0
DEVILS ISLAND    2200   73     230/  5/  7 1011.7F
PORT WING        2200   78      CALM  /  2 1012.2
SAXON HARBOR     2200   75        CALM     1011.9S
$$

LMZ867-665-643>646-020000-
LAKE MICHIGAN

STATION/POSITION TIME  TEMP    WIND        PRES    WAVE
                       AIR SEA DIR/SP/G            HT/PER
                 (UTC) (F)     (DEG/KT/KT) (MB)    (FT/S)
CHAMBERS ISLAND  2200   82     150/  4/ 11 1012.9S
S GREEN BAY BUOY 2230   74 67  200/  6/  8 1014.8R
N MID LAKE BUOY  2150   67 65  210/ 14/ 16 1013.5F   2/ 3
NORTHPORT PIER   2200   74     150/  6/ 13 1013.2S
SISTER BAY       2219   80     170/ 11/ 13   N/A
ALGOMA LAKESHORE 2214          220/  5/  7   N/A
KEWAUNEE LAKESHO 2200   54     170/ 10/ 12 1013.1S
SHEBOYGAN LAKESH 2200   72     180/ 19/ 20 1014.3S
PORT WASHINGTON  2200   65     170/  3/  7 1014.9
ATWATER BUOY     2200   60 50  160/ 10/ 14 1015.8F
S MID LAKE BUOY  2150   73 70  180/ 12/ 14 1015.0F
KENOSHA   LAKESH 2200   73     190/  8/ 12 1014.6F
$$

TC  - TEMPERATURE IN CELSIUS
VSB - VISIBILITY IN STATUTE MILES
WCI - WIND CHILL INDEX
HX  - HEAT INDEX



USA.gov is the U.S. government's official web portal to all federal, state and local government web resources and services.